星链-1361 (STARLINK-1361 )

导读 | 星芒AI

STARLINK-1361 是 SpaceX Starlink 项目中的一颗低轨通信卫星,属于第 1361 批次发射的星链卫星之一。该卫星于 2024 年发射,部署在约 550 公里的近地轨道上,旨在为全球提供高速、低延迟的互联网服务。作为星链星座的一部分,STARLINK-1361 采用先进推进系统和激光通信技术,支持全球范围内的宽带接入,尤其在偏远和网络基础设施薄弱地区发挥重要作用。

基本信息
目录编号:
45567
目录名称:
STARLINK-1361
国际标识:
2020-025AN
轨道中心:
EARTH
卫星名称:
星链-1361
卫星全名:
星链-1361 (STARLINK-1361 )
卫星状态:
在轨 (已飞行2016 天)
发射日期:
2020-04-22 UTC
国别 :
美国 (US)
星等 :
--
轨道信息
数据来源 国际轨道数据
星历时间: 2025-10-28T15:55:09+0800
1天前
查看轨道信息
半长轴: 6925.346km
偏心率: 0.0001321
轨道倾角: 53.054°
近地点辐角 88.343°
升交点赤经 320.802°
平近点角 271.771°
近地点: 546.296km
远地点: 548.126km
周期: 95.592分钟
每日圈数: 15.064011
详细信息
固有亮度:
5
最大亮度:
2.5
卫星平台:
Starlink V1.0
覆盖范围:
全球
运营商:
太空探索技术公司
运营商所在国:
美国
制造商(研发单位):
太空探索技术公司
制造商所在国:
美国
使用方式:
暂无
卫星简介
星链(Starlink)计划是由太空探索技术公司(SpaceX)提出的一个巨型低轨卫星互联网星座项目,计划在2019年至2024年间在太空搭建由约1.2万颗卫星组成的“星链”网络,其中1584颗将部署在地球上空550千米处的近地轨道,并从2020年开始工作。该卫星仍在工作。
2D轨道图
3D轨道图
轨道高度分析图
轨道倾角分析图
轨道综合分析图
查看轨道综合分析图